DIAMOND RED (42783 NORAD) Tracking and Keplerian Element Data

This shows tracking and keplerian element data for the satellite.

Feedback or suggestion? Click here.




ElementValue
Catalog42783
NameDIAMOND RED
Epoch Orbit8198
Epoch Day348.85259922
Epoch Year2018
RAAN45.3413
Inclination97.3788
Eccentricity0.0012991
Argument of Perigee156.5536
Mean Anonmoly203.6295
Mean Motion15.218246
Decay Rate8.26E-06
L11 42783U 17036U 18348.85259922 .00000826 00000-0 39327-4 0 9991
L22 42783 97.3788 45.3413 0012991 156.5536 203.6295 15.21824600 81983

Live tracking and technical data element details for DIAMOND RED (NORAD 42783). DIAMOND RED can be tracked NOW for your location showing map with azimuth and elevation plus other details from your city location.

Track the satellite on the map from your city or location and see movement details for azimuth, elevation, latitude, longitude, range, height, and movement on the map or in text.







IsCatalogInMostPopularTable: catalog: 42783, numindb: 237
Update: records affected: 1



GetName: 42783 DIAMOND RED

Hit Count: updated at: Sat, 15 Dec 2018 13:19:32 GMT